Regional Weather Roundup
Issued by NWS

Home | Current Version | Previous Version | Text Only | Print | Product List | Glossary Off
Versions: 1 2 3 4 5 6 7 8 9 10 11 12 13 14 15 16 17 18 19 20 21 22 23 24 25 26 27 28 29 30 31 32 33 34 35 36 37 38 39 40 41 42 43 44 45 46 47 48 49 50

000
ASUS43 KLSX 242010
RWRMO

WEATHER SUMMARY FOR MISSOURI
NATIONAL WEATHER SERVICE SPRINGFIELD MO
300 PM CDT FRI MAR 24 2017

NOTE: "FAIR" INDICATES FEW OR NO CLOUDS BELOW 12,000 FEET WITH NO
       SIGNIFICANT WEATHER AND/OR OBSTRUCTIONS TO VISIBILITY.
       CURRENT SKY AND/OR WEATHER CONDITIONS ARE NOT AVAILABLE FOR
       CHILLICOTHE AND FARMINGTON.

MOZ001>031-035>038-043-044-053-054-242100-
...NORTHERN AND WESTERN MISSOURI...

CITY           SKY/WX    TMP DP  RH WIND       PRES   REMARKS
KANSAS CTY INT LGT RAIN  60  56  86 E10       29.86F
KANSAS C DTWN  LGT RAIN  63  59  87 S7        29.85S
LEE`S SUMMIT   LGT RAIN  61  59  93 S14       29.87S FOG
ST JOSEPH      CLOUDY    60  57  89 E12       29.85F
CHILLICOTHE      N/A     57  56  96 E5        29.93F
KIRKSVILLE     LGT RAIN  56  32  40 SW3       29.97R

$$
MOZ066>068-077>081-088>096-101>105-242100-
...SOUTHWEST MISSOURI...

CITY           SKY/WX    TMP DP  RH WIND       PRES   REMARKS
SPRINGFIELD    LGT RAIN  64  55  72 S16G30    29.92R
JOPLIN         LGT RAIN  61  58  90 S16G26    29.83F
BRANSON        CLOUDY    68  54  60 S14G23    29.93F

$$
MOZ032>034-039>042-045>050-055>058-069>072-242100-
...CENTRAL MISSOURI...

CITY           SKY/WX    TMP DP  RH WIND       PRES   REMARKS
COLUMBIA       CLOUDY    63  57  81 W9        29.93S
JEFFERSON CITY CLOUDY    75  50  41 SW16G24   29.91F
ROLLA          CLOUDY    73  52  47 S17G30    29.92F
SEDALIA        LGT RAIN  61  57  87 S17       29.91F
WHITEMAN AFB   LGT RAIN  62  61  98 S15       29.88S FOG
WARRENSBURG    RAIN      61  55  82 S6        29.88S
OSAGE BEACH    CLOUDY   N/A N/A N/A S16G22    29.90F

$$
MOZ051-052-059>065-242100-
...EAST CENTRAL MISSOURI...

CITY           SKY/WX    TMP DP  RH WIND       PRES   REMARKS
ST LOUIS INTL  PTSUNNY   81  52  36 SW30G37   29.95F
SPIRIT OF STL  CLOUDY    77  51  40 SW18G35   29.93F
ST CHARLES     CLOUDY    78  50  37 S21G33    29.94S

$$
MOZ072>076-082>087-097>100-106>115-242100-
...SOUTH CENTRAL AND SOUTHEAST MISSOURI...

CITY           SKY/WX    TMP DP  RH WIND       PRES   REMARKS
CAPE GIRARDEAU PTSUNNY   72  58  61 S22G30    30.06F
FARMINGTON     CLOUDY    73  55  53 S21G32    30.00F
POPLAR BLUFF   CLOUDY    74  59  59 S18G29    30.04F
WEST PLAINS    CLOUDY    71  54  54 S14G23    29.99F

$$



USA.gov is the U.S. government's official web portal to all federal, state and local government web resources and services.